Previsão horária em Allmen

Hoje, 25 Junho, Sexta-feira

Tempo Temperatura Precipitação Vento Pressão Humidade
00:00 +9°C° 0.1 mm 1 m/s 648 mmHg 93%
01:00 +9°C° 0 mm 1 m/s 648 mmHg 93%
02:00 +8°C° 0 mm 1 m/s 647 mmHg 93%
03:00 +8°C° 0 mm 1 m/s 647 mmHg 93%
04:00 +7°C° 0 mm 1 m/s 647 mmHg 94%
05:00 +8°C° 0 mm 1 m/s 647 mmHg 92%
06:00 +9°C° 0 mm 1 m/s 647 mmHg 90%
07:00 +9°C° 0 mm 0 m/s 648 mmHg 89%
08:00 +11°C° 0.1 mm 1 m/s 648 mmHg 85%
09:00 +12°C° 0.1 mm 1 m/s 648 mmHg 81%
10:00 +12°C° 0.1 mm 2 m/s 648 mmHg 76%
11:00 +13°C° 0.2 mm 2 m/s 648 mmHg 73%
12:00 +14°C° 0.2 mm 2 m/s 648 mmHg 69%
13:00 +15°C° 0.2 mm 2 m/s 648 mmHg 65%
14:00 +15°C° 0.4 mm 2 m/s 648 mmHg 70%
15:00 +14°C° 0.4 mm 1 m/s 648 mmHg 74%
16:00 +14°C° 0.4 mm 1 m/s 648 mmHg 79%
17:00 +14°C° 0.4 mm 1 m/s 648 mmHg 82%
18:00 +13°C° 0.4 mm 1 m/s 648 mmHg 86%
19:00 +13°C° 0.4 mm 1 m/s 648 mmHg 89%
20:00 +11°C° 0.1 mm 1 m/s 648 mmHg 91%
21:00 +10°C° 0.1 mm 1 m/s 648 mmHg 92%
22:00 +9°C° 0.1 mm 1 m/s 648 mmHg 93%
23:00 +9°C° 0 mm 1 m/s 647 mmHg 93%

Amanhã, 26 Junho, Sábado

Tempo Temperatura Precipitação Vento Pressão Humidade
00:00 +8°C° 0 mm 1 m/s 647 mmHg 93%
01:00 +8°C° 0 mm 1 m/s 647 mmHg 93%
02:00 +8°C° 0 mm 1 m/s 647 mmHg 93%
03:00 +7°C° 0 mm 1 m/s 646 mmHg 93%
04:00 +7°C° 0 mm 1 m/s 646 mmHg 93%
05:00 +8°C° 0 mm 1 m/s 647 mmHg 90%
06:00 +9°C° 0 mm 0 m/s 647 mmHg 88%
07:00 +10°C° 0 mm 0 m/s 647 mmHg 85%
08:00 +13°C° 0 mm 1 m/s 648 mmHg 77%
09:00 +15°C° 0 mm 1 m/s 648 mmHg 70%
10:00 +16°C° 0 mm 1 m/s 649 mmHg 62%
11:00 +17°C° 0 mm 2 m/s 649 mmHg 58%
12:00 +18°C° 0 mm 2 m/s 649 mmHg 55%
13:00 +19°C° 0 mm 2 m/s 649 mmHg 52%
14:00 +19°C° 0.2 mm 2 m/s 648 mmHg 55%
15:00 +19°C° 0.2 mm 2 m/s 648 mmHg 58%
16:00 +19°C° 0.2 mm 2 m/s 648 mmHg 60%
17:00 +18°C° 0.2 mm 2 m/s 648 mmHg 68%
18:00 +18°C° 0.2 mm 1 m/s 648 mmHg 75%
19:00 +16°C° 0.2 mm 1 m/s 648 mmHg 83%
20:00 +14°C° 0.3 mm 1 m/s 647 mmHg 86%
21:00 +13°C° 0.3 mm 1 m/s 647 mmHg 89%
22:00 +12°C° 0.3 mm 1 m/s 647 mmHg 92%
23:00 +12°C° 0 mm 1 m/s 647 mmHg 91%

Depois de amanhã, 27 Junho, Domingo

Tempo Temperatura Precipitação Vento Pressão Humidade
00:00 +11°C° 0 mm 1 m/s 647 mmHg 90%
01:00 +11°C° 0 mm 1 m/s 646 mmHg 90%
02:00 +11°C° 0 mm 1 m/s 646 mmHg 90%
03:00 +10°C° 0 mm 1 m/s 646 mmHg 89%
04:00 +9°C° 0 mm 2 m/s 646 mmHg 89%
05:00 +11°C° 0 mm 1 m/s 646 mmHg 86%
06:00 +12°C° 0 mm 1 m/s 646 mmHg 84%
07:00 +14°C° 0 mm 1 m/s 647 mmHg 81%
08:00 +16°C° 0 mm 1 m/s 647 mmHg 71%
09:00 +19°C° 0 mm 1 m/s 648 mmHg 61%
10:00 +21°C° 0 mm 1 m/s 648 mmHg 51%
11:00 +22°C° 0 mm 1 m/s 648 mmHg 48%
12:00 +23°C° 0 mm 2 m/s 648 mmHg 45%
13:00 +24°C° 0 mm 2 m/s 648 mmHg 42%
14:00 +24°C° 0 mm 2 m/s 648 mmHg 45%
15:00 +24°C° 0 mm 2 m/s 648 mmHg 49%
16:00 +23°C° 0 mm 2 m/s 648 mmHg 52%
17:00 +21°C° 0.2 mm 2 m/s 647 mmHg 61%
18:00 +20°C° 0.2 mm 1 m/s 647 mmHg 70%
19:00 +19°C° 0.2 mm 1 m/s 647 mmHg 78%
20:00 +18°C° 0 mm 1 m/s 646 mmHg 80%
21:00 +15°C° 0 mm 2 m/s 646 mmHg 82%
22:00 +14°C° 0 mm 2 m/s 646 mmHg 84%
23:00 +14°C° 0 mm 2 m/s 646 mmHg 84%

28 Junho, Segunda-feira

Tempo Temperatura Precipitação Vento Pressão Humidade
00:00 +13°C° 0 mm 2 m/s 646 mmHg 83%
01:00 +13°C° 0 mm 2 m/s 645 mmHg 83%
02:00 +12°C° 0.2 mm 2 m/s 646 mmHg 85%
03:00 +12°C° 0.2 mm 1 m/s 646 mmHg 86%
04:00 +12°C° 0.2 mm 1 m/s 646 mmHg 87%
05:00 +13°C° 0 mm 1 m/s 646 mmHg 84%
06:00 +14°C° 0 mm 1 m/s 646 mmHg 81%
07:00 +15°C° 0 mm 1 m/s 646 mmHg 78%
08:00 +18°C° 0 mm 1 m/s 647 mmHg 71%
09:00 +20°C° 0 mm 1 m/s 647 mmHg 63%
10:00 +22°C° 0 mm 1 m/s 647 mmHg 55%
11:00 +23°C° 0 mm 2 m/s 647 mmHg 52%
12:00 +24°C° 0 mm 2 m/s 647 mmHg 48%
13:00 +25°C° 0 mm 2 m/s 647 mmHg 45%
14:00 +25°C° 0 mm 2 m/s 647 mmHg 46%
15:00 +25°C° 0 mm 3 m/s 646 mmHg 48%
16:00 +25°C° 0 mm 3 m/s 646 mmHg 49%
17:00 +22°C° 0.7 mm 3 m/s 645 mmHg 61%
18:00 +19°C° 0.7 mm 3 m/s 645 mmHg 72%
19:00 +17°C° 0.7 mm 3 m/s 645 mmHg 84%
20:00 +14°C° 0.6 mm 3 m/s 645 mmHg 88%
21:00 +14°C° 0.6 mm 2 m/s 645 mmHg 92%
22:00 +12°C° 0.6 mm 1 m/s 646 mmHg 96%
23:00 +12°C° 0.2 mm 1 m/s 646 mmHg 96%

29 Junho, Terça-feira

Tempo Temperatura Precipitação Vento Pressão Humidade
00:00 +12°C° 0.2 mm 1 m/s 645 mmHg 96%
01:00 +11°C° 0.2 mm 0 m/s 645 mmHg 96%
02:00 +11°C° 0.1 mm 0 m/s 645 mmHg 96%
03:00 +11°C° 0.1 mm 0 m/s 645 mmHg 96%
04:00 +11°C° 0.1 mm 0 m/s 644 mmHg 96%
05:00 +11°C° 0.1 mm 0 m/s 644 mmHg 96%
06:00 +12°C° 0.1 mm 0 m/s 645 mmHg 95%
07:00 +13°C° 0.1 mm 1 m/s 645 mmHg 94%
08:00 +13°C° 0.4 mm 1 m/s 645 mmHg 92%
09:00 +13°C° 0.4 mm 1 m/s 645 mmHg 91%
10:00 +13°C° 0.4 mm 2 m/s 645 mmHg 89%
11:00 +13°C° 0.5 mm 2 m/s 645 mmHg 91%
12:00 +12°C° 0.5 mm 2 m/s 645 mmHg 93%
13:00 +10°C° 0.5 mm 2 m/s 645 mmHg 94%
14:00 +10°C° 0.5 mm 2 m/s 645 mmHg 95%
15:00 +10°C° 0.5 mm 2 m/s 645 mmHg 95%
16:00 +9°C° 0.5 mm 2 m/s 645 mmHg 96%
17:00 +9°C° 2.3 mm 2 m/s 645 mmHg 96%
18:00 +9°C° 2.3 mm 1 m/s 645 mmHg 97%
19:00 +9°C° 2.3 mm 1 m/s 645 mmHg 98%
20:00 +8°C° 2.7 mm 1 m/s 646 mmHg 97%
21:00 +8°C° 2.7 mm 1 m/s 646 mmHg 96%
22:00 +8°C° 2.7 mm 1 m/s 646 mmHg 95%
23:00 +7°C° 0 mm 1 m/s 646 mmHg 94%

30 Junho, Quarta-feira

Tempo Temperatura Precipitação Vento Pressão Humidade
00:00 +7°C° 0 mm 1 m/s 645 mmHg 93%
01:00 +7°C° 0 mm 1 m/s 645 mmHg 91%
02:00 +7°C° 0 mm 1 m/s 645 mmHg 91%
03:00 +7°C° 0 mm 1 m/s 644 mmHg 90%
04:00 +7°C° 0 mm 1 m/s 644 mmHg 90%
05:00 +7°C° 0 mm 0 m/s 644 mmHg 87%
06:00 +8°C° 0 mm 0 m/s 644 mmHg 85%
07:00 +9°C° 0 mm 0 m/s 644 mmHg 82%
08:00 +11°C° 0 mm 1 m/s 645 mmHg 74%
09:00 +13°C° 0 mm 1 m/s 645 mmHg 66%
10:00 +14°C° 0 mm 2 m/s 645 mmHg 59%
11:00 +15°C° 0 mm 2 m/s 645 mmHg 58%
12:00 +15°C° 0 mm 2 m/s 645 mmHg 57%
13:00 +16°C° 0 mm 2 m/s 645 mmHg 56%
14:00 +15°C° 0.1 mm 2 m/s 645 mmHg 62%
15:00 +15°C° 0.1 mm 1 m/s 644 mmHg 67%
16:00 +14°C° 0.1 mm 1 m/s 644 mmHg 73%
17:00 +13°C° 1 mm 1 m/s 644 mmHg 80%
18:00 +12°C° 1 mm 1 m/s 644 mmHg 87%
19:00 +11°C° 1 mm 1 m/s 644 mmHg 94%
20:00 +10°C° 3.1 mm 1 m/s 644 mmHg 95%
21:00 +10°C° 3.1 mm 1 m/s 644 mmHg 96%
22:00 +8°C° 3.1 mm 2 m/s 644 mmHg 97%
23:00 +8°C° 1.9 mm 2 m/s 644 mmHg 98%
Mostrar mais